www.pogodaiklimat.ru

Погода и климат >> Архив погоды >> Словакия >> Братислава


АРХИВ ПОГОДЫ в Братиславе

Время (UTC), дата Ветер
(напр.,м/с)
 
Видим.   Явления Облачность Т
(С)
Тd
(С)
f
(%)
Тe
(С)
Тes
(С)
Комфортность P
(гПа)
Po
(гПа)
Тmin
(С)
Tmax
(С)
R
(мм)
R24
(мм)
S
(см)
01 15.07 30 км ясно +16.3 +10.6 69 1013.4 997.6
02 15.07 С 3 30 км ясно +16.4 +10.0 66 +16 +16 прохладно 1013.3 997.5
03 15.07 С 3 40 км ясно +15.1 +9.9 71 +14 +14 прохладно 1013.4 997.5
04 15.07 З 2 40 км ясно +15.3 +10.1 71 +15 +16 холодно 1013.5 997.6
05 15.07 40 км 1/0
[Ac lent]
+17.9 +10.0 60 1013.4 997.7
06 15.07 С 2 40 км 1/0
[Ac lent]
+19.8 +10.0 53 +22 +26 комфорт 1013.8 998.2 +14.0
07 15.07 С 2 40 км 3/0
[Ac lent Cc]
+20.9 +11.0 53 +24 +31 комфорт 1014.1 998.5
08 15.07 40 км 3/1 1500 м
[Cu hum Ac lent Ci fib]
+22.3 +9.2 43 1014.0 998.5
09 15.07 С 3 40 км 4/4 1500 м
[Cu med, cong Ci fib]
+21.8 +9.0 44 +23 +31 комфорт 1014.0 998.5
10 15.07 С 5 40 км 6/6 1500 м
[Cu med, cong Ac lent Ci fib]
+23.3 +5.3 31 +23 +27 комфорт 1013.8 998.3
11 15.07 С 5 40 км 8/8 1500 м
[Cu med, cong Ac lent]
+23.3 +7.4 36 +24 +26 комфорт 1013.7 998.2
12 15.07 СВ 3 40 км 8/6 1500 м
[Cu med, cong Ac lent Ci fib]
+23.2 +7.7 37 +24 +28 комфорт 1013.5 998.0
13 15.07 С 6 40 км 8/6 1500 м
[Cu med, cong Ac lent Ci fib]
+25.2 +7.4 32 +25 +27 комфорт 1013.0 997.6
14 15.07 СЗ 7 40 км 8/6 1500 м
[Cu med, cong Ac lent Ci fib]
+25.0 +8.1 34 +25 +26 комфорт 1012.8 997.5
15 15.07 С 7 40 км 5/5 1500 м
[Cu med, cong Ac lent Ci fib]
+25.1 +9.4 37 +26 +27 жарко 1012.8 997.5
16 15.07 С 6 40 км 4/1 1500 м
[Cu hum Ac cuf Ci fib]
+24.2 +9.4 39 +25 +26 комфорт 1012.7 997.3
17 15.07 С 6 40 км 4/1 1500 м
[Cu hum Ac lent]
+22.6 +8.4 40 +24 +24 комфорт 1013.1 997.6
18 15.07 С 3 40 км 3/0
[Ac lent]
+21.1 +8.4 44 +22 +22 комфорт 1013.0 997.4 +26.1
19 15.07 штиль 0 40 км 3/0
[Ac lent]
+20.3 +7.3 43 +21 +21 комфорт 1013.2 997.6
20 15.07 40 км 4/0
[Ac lent Ci fib]
+19.5 +7.6 46 1013.6 998.0
21 15.07 СВ 2 40 км 3/0
[Ac lent Ci fib]
+18.7 +9.2 54 +20 +20 по сезону 1013.9 998.2
22 15.07 СВ 2 40 км 3/0
[Ac lent Ci fib]
+17.3 +9.7 61 +18 +18 тепло 1014.2 998.4
23 15.07 штиль 0 40 км 1/0
[Ac lent]
+14.3 +8.9 70 +14 +14 прохладно 1014.3 998.4
00 16.07 штиль 0 40 км 1/0
[Ac lent]
+14.2 +9.6 74 +14 +14 прохладно 1014.3 998.4
01 16.07 40 км ясно +14.9 +9.9 72 1014.2 998.3
02 16.07 З 2 40 км ясно +15.9 +10.7 71 +16 +16 прохладно 1014.0 998.2
03 16.07 ЮЗ 1 40 км 1/0
[Ac trans]
+14.8 +10.8 77 +15 +15 прохладно 1014.3 998.4
04 16.07 ЮВ 2 40 км 1/0
[Ci fib]
+12.9 +10.4 85 +12 +12 очень
холодно
1014.4 998.4
05 16.07 40 км 5/0
[Ci fib]
+16.1 +12.1 77 1014.5 998.7
06 16.07 нст 1 40 км 6/0
[Ci fib]
+19.9 +12.9 64 +23 +27 комфорт 1014.2 998.6 +12.5
07 16.07 З 3 40 км 8/0
[Ac cast Ci sp]
+22.4 +11.2 49 +25 +30 комфорт 1014.0 998.5
08 16.07 З 4 40 км 8/6 1300 м
[Cu Sc Ac cast Ci fib]
+23.6 +11.7 47 +25 +28 комфорт 1013.9 998.5
09 16.07 З 4 40 км 6/4 1350 м
[Cu Sc Ac cast Ci fib]
+23.8 +11.5 46 +25 +30 комфорт 1013.6 998.2
10 16.07 З 5 30 км 5/3 1470 м
[Cu Sc Ac cast Ci fib]
+24.7 +12.0 45 +26 +32 жарко 1013.2 997.8
11 16.07 З 5 30 км 4/4 1500 м
[Cu med, cong Ac lent Ci fib]
+25.0 +11.9 44 +27 +32 жарко 1012.8 997.5
12 16.07 З 5 30 км 5/5 1500 м
[Cu med, cong Ci fib]
+26.3 +11.7 40 +28 +32 жарко 1012.4 997.1
13 16.07 З 6 30 км 6/6 1500 м
[Cu med, cong Ac lent Ci fib]
+26.1 +10.3 37 +27 +29 жарко 1012.2 996.9
14 16.07 З 8 30 км 4/4 1500 м
[Cu med, cong Ac lent Ci fib]
+26.9 +9.8 34 +27 +29 жарко 1011.6 996.4
15 16.07 З 5 30 км 6/5 1500 м
[Sc diur, vesp Ac cuf]
+25.8 +11.6 41 +27 +29 жарко 1011.4 996.1
16 16.07 З 6 30 км 5/5 1500 м
[Cu med, cong Ac cuf]
+26.9 +10.2 35 +27 +28 жарко 1010.7 995.5
17 16.07 СЗ 5 35 км 3/3 1500 м
[Sc diur, vesp Ac cuf]
+26.3 +9.2 34 +27 +27 жарко 1010.8 995.6
18 16.07 С 7 35 км 1/1 1500 м
[Sc diur, vesp Ac cuf]
+23.9 +10.9 44 +25 +25 комфорт 1011.6 996.2 +27.4
19 16.07 С 5 30 км 1/1 2000 м
[Sc Ac cuf]
+21.7 +11.2 51 +24 +24 комфорт 1012.5 997.0
20 16.07 С 3 30 км 1/0
[Ac lent]
+20.4 +9.4 49 +22 +22 комфорт 1013.2 997.6
21 16.07 С 2 30 км 1/0
[Ac lent]
+19.3 +8.6 50 +21 +21 комфорт 1013.6 997.9
22 16.07 В 1 30 км ясно +17.9 +8.8 55 +19 +19 тепло 1014.0 998.3
23 16.07 30 км 1/0
[Ac lent]
+17.4 +9.3 59 1014.5 998.7
00 17.07 СЗ 4 30 км 1/0
[Ac lent]
+17.1 +9.0 59 +17 +17 по сезону 1014.4 998.6
01 17.07 СЗ 4 30 км ясно +15.6 +9.5 67 +15 +15 прохладно 1014.6 998.7
02 17.07 СЗ 5 30 км 1/0
[Ci fib]
+16.1 +9.3 64 +15 +15 прохладно 1014.5 998.7
03 17.07 З 5 30 км 6/0
[Ac lent Ci fib]
+15.0 +9.4 69 +14 +14 прохладно 1014.6 998.7
04 17.07 З 4 30 км 6/0
[Ac lent Ci fib]
+15.1 +9.7 70 +14 +14 холодно 1014.7 998.8
05 17.07 З 4 30 км 4/0
[Ci sp]
+16.1 +9.8 66 +15 +17 холодно 1014.7 998.9
06 17.07 СЗ 5 30 км 4/0
[Ac lent Ci fib]
+17.4 +9.6 60 +17 +19 прохладно 1014.8 999.0 +14.6
07 17.07 С 5 30 км 4/0
[Ac lent Ci sp]
+19.6 +10.1 54 +21 +24 комфорт 1014.4 998.7
08 17.07 З 3 40 км 4/1 1320 м
[Cu hum Ac lent Ci sp]
+20.6 +9.8 50 +23 +30 комфорт 1014.3 998.7
09 17.07 СЗ 3 40 км 3/1 1440 м
[Cu hum Ac lent Ci fib]
+21.9 +10.1 47 +24 +33 комфорт 1013.7 998.2
10 17.07 СЗ 4 40 км 4/1 1440 м
[Cu hum Ac lent Ci fib]
+23.0 +11.1 47 +25 +34 комфорт 1013.4 997.9
11 17.07 СЗ 5 40 км 5/5 1500 м
[Cu hum Ci sp]
+23.6 +10.3 43 +25 +29 комфорт 1012.8 997.4
12 17.07 С 5 40 км 5/5 1500 м
[Cu hum Ac lent Ci fib]
+25.2 +11.4 42 +27 +31 жарко 1012.4 997.1
13 17.07 СЗ 5 30 км 5/4 1500 м
[Cu hum Ac lent Ci fib]
+26.1 +10.7 38 +27 +31 жарко 1012.0 996.7
14 17.07 СЗ 6 40 км 5/3 1500 м
[Cu hum Ac lent Ci fib]
+25.9 +10.5 38 +27 +29 жарко 1011.7 996.4
15 17.07 С 5 40 км 4/1 1500 м
[Cu hum Ac lent Ci fib]
+26.3 +10.9 38 +27 +30 жарко 1011.2 996.0
16 17.07 С 5 40 км 4/1 1500 м
[Cu hum Ac lent Ci fib]
+26.6 +11.2 38 +28 +29 жарко 1010.8 995.6
17 17.07 С 3 50 км 5/1 1500 м
[Cu hum Ac lent Cs]
+25.9 +10.9 39 +27 +28 жарко 1010.8 995.5
18 17.07 С 5 50 км 6/1 1500 м
[Cb calv Ac lent Ci ing]
+24.7 +11.0 42 +26 +26 жарко 1010.7 995.4 +26.9
19 17.07 нст 1 50 км 6/1 1500 м
[Cb calv Ac lent Ci ing]
+23.2 +11.3 47 +25 +25 комфорт 1011.2 995.8
20 17.07 нст 1 50 км 8/1 1500 м
[Cb calv Ac lent Ci ing]
+22.4 +11.8 51 +25 +25 комфорт 1011.9 996.4
21 17.07 СВ 2 50 км зарница 9/1 1500 м
[Cb cap Ac As Ci ing]
+19.9 +12.4 62 +22 +22 комфорт 1011.9 996.3
22 17.07 С 1 50 км гроза без осадков 9/1 1500 м
[Cb cap Ac As Cs]
+19.4 +12.4 64 +22 +22 комфорт 1011.8 996.2
23 17.07 С 3 45 км в посл. час гроза {ливн. осадки} 9/3 1500 м
[Cb cap Ac cast Cs]
+18.9 +12.9 68 +20 +20 тепло 1012.2 996.6
00 18.07 С 4 45 км {гроза, ливн. осадки} 9/1 1500 м
[Cu Sc Ac lent Cs]
+17.7 +12.4 71 +17 +17 по сезону 1012.0 996.3 0.0
01 18.07 В 2 45 км 9/6 1500 м
[Cu Sc Cs]
+17.4 +12.7 74 +18 +18 по сезону 1012.3 996.6
02 18.07 45 км зарница 9/8 1500 м
[Cb cap Ac As]
+17.2 +13.1 77 1012.3 996.6
03 18.07 В 2 45 км слаб. ливневой дождь 9/8 1500 м
[Cu Sc Ac As Cs]
+17.3 +13.4 78 +18 +18 по сезону 1012.3 996.6
04 18.07 СВ 3 45 км в посл. час ливневой дождь 9/9 1500 м
[Cu Sc Ac lent Ci fib]
+16.5 +13.6 83 +16 +16 прохладно 1012.8 997.0
05 18.07 45 км 4/1 1500 м
[Cu med, cong Ac cuf Ci fib]
+16.9 +14.2 84 1012.6 996.9
06 18.07 С 4 45 км {ливн. осадки} 3/1 1500 м
[Cu hum Ac lent Ci fib]
+18.2 +14.3 78 +18 +21 по сезону 1013.1 997.4 +16.2 0.0
07 18.07 СЗ 2 45 км 3/1 1500 м
[Cu hum Ac lent Ci fib]
+19.9 +12.4 62 +22 +28 комфорт 1013.0 997.4
08 18.07 40 км 1/1 1500 м
[Cu hum Ac lent Ci fib]
+21.4 +12.6 57 1013.2 997.7
09 18.07 нст 1 40 км 1/1 1500 м
[Cu hum Ac lent Ci fib]
+23.0 +13.8 56 +26 +42 жарко 1013.1 997.7
10 18.07 40 км 3/1 1260 м
[Cu med, cong Ac lent Ci fib]
+24.9 +13.8 50 1012.8 997.5
11 18.07 40 км 5/5 1500 м
[Cu med, cong Ci fib]
+25.7 +13.2 46 1012.5 997.2
12 18.07 нст 1 40 км 5/5 1500 м
[Cu med, cong Ci fib]
+26.2 +12.7 43 +28 +37 жарко 1012.3 997.0
13 18.07 40 км 5/5 1500 м
[Cu med, cong Ci fib]
+27.0 +10.7 36 1011.7 996.5
14 18.07 СВ 3 40 км 5/5 1500 м
[Cu med, cong Ac lent Ci fib]
+26.7 +11.6 39 +28 +32 жарко 1011.5 996.3
15 18.07 нст 2 40 км 5/4 1500 м
[Cb cap Ac lent Ci ing]
+27.6 +9.5 32 +28 +32 жарко 1011.4 996.2
16 18.07 40 км 5/4 2000 м
[Cu med, cong Ac lent Ci ing]
+27.2 +9.6 33 1011.3 996.1
17 18.07 Ю 3 40 км 5/3 1500 м
[Cu med, cong Ac cuf Ci fib]
+26.7 +12.0 40 +28 +29 жарко 1011.4 996.2
18 18.07 Ю 3 40 км 4/1 1500 м
[Cu med, cong Ac cuf Ci fib]
+24.6 +12.2 46 +26 +26 жарко 1011.8 996.5 +28.6
19 18.07 40 км 4/0
[Ac cuf Ci fib]
+22.9 +12.0 50 1012.5 997.1
20 18.07 В 2 40 км 4/0
[Ac lent Ci fib]
+19.7 +12.2 62 +22 +22 комфорт 1013.4 997.8
21 18.07 нст 1 40 км 4/0
[Ac lent Ci fib]
+18.7 +12.2 66 +21 +21 комфорт 1013.8 998.1
22 18.07 СВ 2 40 км 4/0
[Ac lent Ci fib]
+17.9 +12.2 69 +18 +18 тепло 1013.9 998.2
23 18.07 СВ 2 35 км 3/0
[Ci fib]
+17.1 +12.6 75 +17 +17 по сезону 1014.4 998.6
00 19.07 СВ 2 35 км 4/0
[Ci fib]
+16.1 +12.3 78 +16 +16 по сезону 1014.8 999.0
01 19.07 С 3 35 км 3/0
[Ci fib]
+15.2 +12.3 83 +14 +14 прохладно 1015.0 999.1
02 19.07 СВ 3 30 км 3/0
[Ci fib]
+15.1 +12.8 86 +14 +14 прохладно 1015.1 999.2
03 19.07 СВ 4 25 км 3/0
[Ac lent Ci fib]
+14.1 +12.0 87 +13 +13 холодно 1015.4 999.4
04 19.07 СВ 3 25 км 3/0
[Ac lent Ci fib]
+14.7 +12.7 88 +14 +14 холодно 1015.5 999.6
05 19.07 СВ 3 30 км 3/0
[Ac cast Cs]
+16.6 +13.5 82 +16 +18 прохладно 1015.8 1000.0
06 19.07 СВ 4 30 км 6/1 1500 м
[Cb calv Ac lent Cs]
+18.6 +14.1 75 +19 +21 по сезону 1015.8 1000.1 +14.1
07 19.07 СВ 3 30 км 9/0
[Ac lent Ci fib]
+20.4 +14.5 69 +23 +28 комфорт 1016.0 1000.4
08 19.07 30 км 6/0
[Ac cast Ci fib]
+22.1 +14.5 62 1015.9 1000.4
09 19.07 В 2 35 км 9/1 1200 м
[Cu med, cong Ac As Ci fib]
+24.4 +14.2 53 +27 +34 жарко 1015.7 1000.3
10 19.07 35 км 9/1 1300 м
[Cu med, cong Ac As Ci fib]
+24.5 +14.0 52 1015.7 1000.3
11 19.07 Ю 2 35 км 5/1 1500 м
[Cb calv Ac lent Ci fib]
+27.1 +14.5 46 +30 +42 душно 1015.2 1000.0
12 19.07 нст 2 40 км 6/1 1500 м
[Cb calv Ci ing]
+28.6 +11.7 35 +29 +43 жарко 1014.6 999.4
13 19.07 40 км 8/3 2000 м
[Cb cap Ci ing]
+29.9 +11.0 31 1014.0 998.9
14 19.07 Ю 5 35 км гроза без осадков 9/5 2000 м
[Cb cap Ac cuf Ci ing]
+28.0 +11.6 36 +29 +31 жарко 1014.0 998.8
15 19.07 нст 1 25 км в посл. час гроза {ливн. осадки} 9/1 800 м
[Cb cap Ac As Ci ing]
+25.3 +15.6 55 +28 +32 жарко 1014.8 999.5
16 19.07 ЮЗ 2 30 км 9/1 1300 м
[Cu med, cong Ac As Ci sp]
+26.4 +15.2 50 +29 +31 жарко 1014.5 999.2
17 19.07 ЮЗ 2 35 км 8/1 1500 м
[Cu hum Ac As Ci sp]
+26.9 +13.3 43 +29 +29 жарко 1014.7 999.4
18 19.07 ЮЗ 1 35 км {гроза, ливн. осадки} 6/0
[Ac lent Ci ing]
+25.4 +15.4 54 +28 +28 жарко 1014.8 999.5 +30.3 4
19 19.07 ЮВ 2 30 км 6/0
[Ac As Ci fib]
+23.5 +16.6 65 +27 +27 душно 1015.1 999.7
20 19.07 30 км 6/0
[Ac trans Ci fib]
+22.6 +16.9 70 1015.7 1000.2
21 19.07 С 2 30 км 8/0
[Ac trans]
+21.7 +15.3 67 +25 +25 комфорт 1015.9 1000.4
22 19.07 СВ 3 30 км 6/0
[Ac lent]
+19.9 +16.9 83 +23 +23 комфорт 1016.3 1000.7
23 19.07 СВ 1 30 км 6/0
[Ac lent]
+19.9 +16.0 78 +23 +23 комфорт 1016.6 1001.0
00 20.07 С 3 30 км 6/0
[Ac und]
+19.7 +15.4 76 +22 +22 комфорт 1016.6 1000.9
01 20.07 С 4 30 км 6/0
[Ac trans]
+19.9 +14.9 73 +22 +22 комфорт 1016.3 1000.7
02 20.07 СВ 3 30 км 8/0
[Ac trans]
+19.3 +14.8 75 +21 +21 комфорт 1016.5 1000.8
03 20.07 СВ 2 30 км 8/0
[Ac trans Ci fib]
+18.2 +14.3 78 +19 +19 по сезону 1016.5 1000.8
04 20.07 СВ 3 30 км 6/0
[Ac lent Ci fib]
+18.0 +14.5 80 +18 +18 прохладно 1016.6 1000.9
05 20.07 СВ 3 30 км 5/0
[Ac cast Ci fib]
+19.2 +14.9 76 +21 +22 комфорт 1016.9 1001.2
06 20.07 СВ 5 30 км 5/0
[Ac cast Ci fib]
+21.7 +15.3 67 +25 +27 комфорт 1016.8 1001.2 +17.7
07 20.07 СВ 3 40 км 6/0
[Ac trans Ci fib]
+22.2 +15.1 64 +26 +30 душно 1016.8 1001.3
08 20.07 СВ 3 40 км 6/0
[Ac cast Ci fib]
+24.1 +15.1 57 +27 +34 жарко 1016.7 1001.3
09 20.07 нст 2 40 км 6/0
[Ac trans Ci fib]
+26.3 +16.3 54 +30 +40 душно 1016.6 1001.3
10 20.07 40 км 5/0
[Ac trans Ci fib]
+27.8 +16.1 49 1016.1 1000.9
11 20.07 Ю 3 40 км 5/1 1500 м
[Cu med, cong Ac lent Ci sp]
+29.4 +15.9 44 +32 +42 душно 1015.6 1000.5
12 20.07 Ю 4 40 км 6/1 1500 м
[Cu med, cong Ac lent Ci ing]
+30.8 +14.0 36 +32 +40 жарко 1015.1 1000.0
13 20.07 40 км 6/1 1500 м
[Cu med, cong Ci sp]
+31.9 +13.2 32 1014.5 999.5
14 20.07 ЮЗ 5 40 км 5/3 2000 м
[Cu med, cong Ac lent Ci ing]
+32.6 +12.3 29 +33 +36 жарко 1014.2 999.2
15 20.07 Ю 4 40 км 8/3 2000 м
[Cb cap Ci ing]
+32.5 +11.7 28 +33 +35 жарко 1013.9 998.9
16 20.07 Ю 4 40 км 8/1 2000 м
[Cb calv Ac cuf Ci ing]
+32.5 +12.7 30 +33 +34 жарко 1013.6 998.6
17 20.07 Ю 6 40 км 8/1 2000 м
[Cb calv Ac cuf Cs]
+31.1 +13.9 35 +33 +33 душно 1013.9 998.9
18 20.07 Ю 4 40 км 9/1 1500 м
[Cu med, cong Ci ing]
+29.0 +14.4 41 +31 +31 жарко 1014.3 999.2 +33.3
19 20.07 Ю 3 40 км 9/1 1500 м
[Cb cap Ci ing]
+27.1 +15.2 48 +30 +30 душно 1014.6 999.4
20 20.07 Ю 1 40 км 8/0
[Ac lent Cs]
+25.1 +15.4 55 +28 +28 жарко 1015.6 1000.2
21 20.07 штиль 0 40 км 5/0
[Ac lent Ci fib]
+23.9 +15.4 59 +27 +27 жарко 1015.6 1000.2
22 20.07 штиль 0 40 км 3/0
[Ci fib]
+22.2 +15.6 66 +26 +26 душно 1016.0 1000.5
23 20.07 СЗ 2 40 км 5/0
[Ci sp]
+22.6 +16.2 67 +27 +27 душно 1016.3 1000.8
00 21.07 СВ 2 35 км 6/0
[Cs]
+20.0 +16.1 78 +23 +23 комфорт 1016.4 1000.8
01 21.07 С 2 35 км 9/0
[Cs]
+19.4 +15.9 80 +22 +22 комфорт 1016.4 1000.7
02 21.07 С 2 30 км 9/0
[Cs]
+19.6 +15.9 79 +22 +22 комфорт 1016.2 1000.6
03 21.07 СВ 3 30 км 5/0
[Ac cast Cs]
+18.6 +15.7 83 +20 +20 тепло 1016.5 1000.8
04 21.07 СВ 3 30 км 9/0
[Ac cast Cs]
+19.1 +16.2 83 +21 +21 комфорт 1016.8 1001.1
05 21.07 СВ 3 30 км 8/0
[Ac cast Cs]
+20.6 +16.6 78 +24 +25 комфорт 1017.1 1001.5
06 21.07 С 3 25 км 9/0
[Ac cast Ci sp]
+22.0 +16.7 72 +26 +28 душно 1017.4 1001.9 +18.4
07 21.07 25 км 8/0
[Ac trans Ci fib]
+23.4 +16.7 66 1017.3 1001.8
08 21.07 25 км 9/0
[Ac trans Ci fib]
+24.3 +17.1 64 1017.6 1002.2
09 21.07 нст 1 25 км 9/0
[Ac trans]
+25.5 +16.9 59 +29 +37 душно 1018.1 1002.7
10 21.07 ЮЗ 2 25 км 9/0
[Ac As Ci fib]
+27.3 +17.5 55 +31 +38 душно 1018.4 1003.1
11 21.07 З 7 25 км 9/0
[Ac As Ci fib]
+28.0 +16.0 48 +31 +33 душно 1019.0 1003.7
12 21.07 СЗ 7 30 км 9/0
[Ac As Ci fib]
+26.7 +15.4 50 +30 +32 душно 1019.7 1004.4
13 21.07 СЗ 8 30 км 9/0
[Ac As Ci fib]
+26.8 +15.5 50 +30 +31 душно 1019.5 1004.2
14 21.07 СЗ 6 30 км 9/1 1500 м
[Cu med, cong Ac As Ci fib]
+25.8 +14.0 48 +28 +30 жарко 1019.4 1004.0
15 21.07 СЗ 5 40 км 9/1 1500 м
[Cu hum Ac cast Ci sp]
+26.6 +14.4 47 +29 +31 жарко 1019.4 1004.1
16 21.07 СЗ 4 40 км 8/1 1500 м
[Cu hum Ac As Ci sp]
+27.0 +14.4 46 +29 +31 жарко 1019.2 1003.9
17 21.07 СЗ 4 50 км 9/1 1200 м
[Cu med, cong Ac As Ci sp]
+25.7 +16.0 55 +29 +29 душно 1019.9 1004.5
18 21.07 З 3 50 км 9/1 1200 м
[Cu med, cong Ac As Ci sp]
+25.7 +16.3 56 +29 +29 душно 1020.3 1004.9 +28.8
19 21.07 Ю 2 50 км 4/1 1200 м
[Cb cap Ac lent Ci ing]
+23.3 +16.4 65 +28 +28 душно 1020.5 1005.0
20 21.07 50 км 4/3 1380 м
[Sc Ac As Ci sp]
+23.4 +16.5 65 1021.3 1005.8
21 21.07 З 3 50 км 4/1 1500 м
[Sc Ci sp]
+22.4 +16.0 67 +27 +27 душно 1021.4 1005.8
22 21.07 З 4 50 км 5/0
[Ci sp]
+21.5 +14.7 65 +25 +25 комфорт 1021.7 1006.1
23 21.07 З 4 50 км 3/0
[Ci fib]
+20.9 +15.9 73 +24 +24 комфорт 1021.9 1006.2
00 22.07 З 4 50 км 3/0
[Ci fib]
+21.3 +16.5 74 +25 +25 комфорт 1021.8 1006.2

 

Местоположение метеостанции Братислава (Словакия): широта 48.20 долгота 17.20 высота над уровнем моря 134 м.

В архиве по умолчанию представлена погода в Братиславе за последнюю неделю. Архивные данные за месяц целиком и за предыдущие месяцы, начиная с января 2011 года, Вы можете получить, выбрав интересующий диапазон дат из раскрывающегося списка и нажав кнопку "Ввод!".


*Определитесь, кто Вы:
робот инопланетянин человек

Внимание! Время в таблицах - всемирное. Для получения местного времени необходимо прибавить поправку, которая равна 1 ч.

Смотрите также архив погоды в соседних городах и на ближайших метеорологических станциях:

Погода в Малом Яровнику (Словакия) (7 км)
Погода в Братислава-Колибе (Словакия) (7 км)
Погода в Малацки (Словакия) (23 км)
Погода в Зверндорф-Маршег (Австрия) (31 км)
Погода в Мошонмадьяроваре (Венгрия) (36 км)
Погода в Нойзидль-ам-Зе (Австрия) (38 км)
Погода в Нойзидль-ам-Зе (Австрия) (39 км)
Погода в Ясловске Богунице (Словакия) (47 км)
Погода в Грос-Энцерсдорфе (Австрия) (47 км)
Погода в Вене аэропорт (Австрия) (48 км)

Пояснения к столбцам:

Ветер - указаны скорость ветра в м/с - средняя за 10 мин, порывы в срок и между сроками (в фигурных скобках) и направление, откуда дует ветер: С - северный, СВ - северо-восточный, В - восточный, ЮВ - юго-восточный, Ю - южный, ЮЗ - юго-западный, З - западный, СЗ - северо-западный.
Видимость - горизонтальная дальность видимости в метрах или километрах. При видимости от 1 до 10 км при отсутствии осадков обычно наблюдается дымка, при ухудшении видимости до 1 км и менее - туман. В сухую погоду видимость может ухудшаться дымом, пылью или мглою.
Явления - указаны атмосферные явления, наблюдавшиеся в срок или в последний час перед сроком; фигурными скобками обозначены явления, наблюдавшиеся между сроками (за 1-3 часа до срока); квадратными скобками обозначены град или гололедные отложения с указанием их диаметра в мм.
Облачность - указаны через наклонную черту общая и нижняя облачность в баллах и высота нижней границы облаков в метрах; квадратными скобками обозначены формы облаков: Ci - перистые, Cs - перисто-слоистые, Cc - перисто-кучевые, Ac - высококучевые, As - высокослоистые, Sc - слоисто-кучевые, Ns - слоисто-дождевые, Cu - кучевые, Cb - кучево-дождевые. Подробнее классификацию облаков см. в Атласе облаков (PDF).
T - Температура воздуха - температура, измеренная на высоте 2 м над землей.
Td - Температура точки росы - температура, при понижении до которой содержащийся в воздухе водяной пар достигнет насыщения.
f - Относительная влажность воздуха - влажноcть воздуха, измеренная на высоте 2 м над землей.
Te - Эффективная температура - температура, которую ощущает одетый по сезону человек в тени. Характеристика душности погоды. При расчете учитывается влияние влажности воздуха и скорости ветра на теплоощущения человека.
Tes - Эффективная температура на солнце - температура, которую ощущает человек, с поправкой на солнечный нагрев. Характеристика знойности погоды. Зависит от высоты солнца над горизонтом, облачности и скорости ветра. Ночью, в пасмурную погоду, а также при ветре 12 м/с и более поправка равна нулю.
P - Атмосферное давление - приведенное к уровню моря атмосферное давление.
Po - Атмосферное давление - измеренное на уровне метеостанции атмосферное давление.
Tmin - Минимальная температура - минимум температуры воздуха на высоте 2 м над землей.
Tmax - Максимальная температура - максимум температуры воздуха на высоте 2 м над землей.
R - Количество осадков - Количество выпавших осадков за период времени, мм. При наведении курсора мыши на число - период времени, за который выпало указанное количество осадков.
R24 - Количество осадков - Количество выпавших осадков за 24 часа, мм.
S - Снежный покров - Высота снежного покрова, см. При наведении курсора мыши на число - состояние снежного покрова и степень покрытия местности в баллах.